Volver al catálogo

COSMOS 533

ActivoMilitarLEO
NORAD 6268·PAYLOAD·🇷🇺 Russia

Lanzado Nov 1, 1972 desde Plesetsk Cosmodrome

Loading…

Próximos Pases (próximas 24 horas)

TLE

ActualizadoSource: Space-Track

Época: Sep 14, 2026, 00:26 UTC

1 06268U 72087F   26257.01818448 -.00000022  00000-0 -29595-4 0  9992
2 06268  74.0320  80.9783 0097090 134.9203  25.3438 12.67615047492551

Sigue COSMOS 533 en tiempo real con AllMySat

Download on the App Store